TimeCST,TemperatureF,Dew PointF,Humidity,Sea Level PressureIn,VisibilityMPH,Wind Direction,Wind SpeedMPH,Gust SpeedMPH,PrecipitationIn,Events,Conditions,WindDirDegrees,DateUTC
12:13 AM,12.2,8.6,85,29.88,10.0,West,3.5,-,N/A,,Scattered Clouds,280,2013-02-23 06:13:00
12:33 AM,10.4,8.6,92,29.88,10.0,Calm,Calm,-,N/A,,Scattered Clouds,0,2013-02-23 06:33:00
12:53 AM,10.4,8.6,92,29.88,10.0,West,3.5,-,N/A,,Mostly Cloudy,270,2013-02-23 06:53:00
1:13 AM,8.6,6.8,92,29.88,10.0,WNW,5.8,-,N/A,,Overcast,290,2013-02-23 07:13:00
1:33 AM,6.8,5.0,92,29.88,10.0,Calm,Calm,-,N/A,,Mostly Cloudy,0,2013-02-23 07:33:00
1:53 AM,8.6,6.8,92,29.88,10.0,West,3.5,-,N/A,,Scattered Clouds,260,2013-02-23 07:53:00
2:12 AM,6.8,3.2,85,29.87,7.0,West,3.5,-,N/A,Snow,Light Snow,260,2013-02-23 08:12:00
2:33 AM,6.8,3.2,85,29.86,7.0,Calm,Calm,-,N/A,,Clear,0,2013-02-23 08:33:00
2:53 AM,8.6,5.0,85,29.86,10.0,NW,3.5,-,N/A,,Clear,310,2013-02-23 08:53:00
3:13 AM,6.8,3.2,85,29.85,10.0,Calm,Calm,-,N/A,,Clear,0,2013-02-23 09:13:00
3:33 AM,3.2,-0.4,85,29.84,5.0,Calm,Calm,-,N/A,,Clear,0,2013-02-23 09:33:00
3:53 AM,5.0,1.4,85,29.84,3.0,Calm,Calm,-,N/A,,Clear,0,2013-02-23 09:53:00
4:13 AM,1.4,-0.4,92,29.84,0.2,Calm,Calm,-,N/A,Fog,Light Freezing Fog,0,2013-02-23 10:13:00
4:33 AM,-0.4,-5.8,78,29.84,0.2,Calm,Calm,-,N/A,Fog,Light Freezing Fog,0,2013-02-23 10:33:00
4:54 AM,-0.4,-4.0,85,29.84,0.2,Calm,Calm,-,N/A,Snow,Light Snow,0,2013-02-23 10:54:00
5:13 AM,-2.2,-5.8,85,29.84,0.2,Calm,Calm,-,N/A,Snow,Light Snow,0,2013-02-23 11:13:00
5:33 AM,-0.4,-2.2,92,29.84,0.5,Calm,Calm,-,N/A,Fog,Light Freezing Fog,0,2013-02-23 11:33:00
5:53 AM,3.2,1.4,92,29.83,1.0,Calm,Calm,-,N/A,Snow,Light Snow,0,2013-02-23 11:53:00
6:13 AM,-0.4,-5.8,78,29.84,1.5,Calm,Calm,-,N/A,Snow,Light Snow,0,2013-02-23 12:13:00
6:33 AM,-2.2,-7.6,78,29.84,0.5,Calm,Calm,-,N/A,Fog,Light Freezing Fog,0,2013-02-23 12:33:00
6:53 AM,3.2,-0.4,85,29.83,5.0,Calm,Calm,-,N/A,,Scattered Clouds,0,2013-02-23 12:53:00
7:13 AM,3.2,1.4,92,29.83,0.5,Calm,Calm,-,N/A,Fog,Light Freezing Fog,0,2013-02-23 13:13:00
7:33 AM,1.4,-2.2,85,29.83,0.8,Calm,Calm,-,N/A,,Mostly Cloudy,0,2013-02-23 13:33:00
7:53 AM,3.2,-0.4,85,29.82,10.0,Calm,Calm,-,N/A,,Scattered Clouds,0,2013-02-23 13:53:00
8:13 AM,3.2,1.4,92,29.83,5.0,Calm,Calm,-,N/A,,Clear,0,2013-02-23 14:13:00
8:53 AM,5.0,1.4,85,29.83,10.0,Calm,Calm,-,N/A,,Clear,0,2013-02-23 14:53:00
9:13 AM,6.8,3.2,85,29.83,10.0,Calm,Calm,-,N/A,,Clear,0,2013-02-23 15:13:00
9:33 AM,8.6,6.8,92,29.83,10.0,SE,3.5,-,N/A,,Clear,130,2013-02-23 15:33:00
9:54 AM,8.6,6.8,92,29.83,10.0,Calm,Calm,-,N/A,,Clear,0,2013-02-23 15:54:00
10:13 AM,12.2,8.6,85,29.83,10.0,SSE,3.5,-,N/A,,Clear,160,2013-02-23 16:13:00
10:33 AM,12.2,10.4,92,29.83,10.0,Calm,Calm,-,N/A,Snow,Light Snow,0,2013-02-23 16:33:00
10:53 AM,15.8,12.2,86,29.82,10.0,South,3.5,-,N/A,,Clear,190,2013-02-23 16:53:00
11:13 AM,15.8,12.2,86,29.82,10.0,SSW,3.5,-,N/A,,Clear,210,2013-02-23 17:13:00
11:33 AM,15.8,14.0,93,29.82,10.0,South,3.5,-,N/A,,Clear,190,2013-02-23 17:33:00
11:53 AM,17.6,15.8,93,29.82,10.0,SE,4.6,-,N/A,,Clear,140,2013-02-23 17:53:00
12:13 PM,17.6,14.0,86,29.82,10.0,South,4.6,-,N/A,,Clear,180,2013-02-23 18:13:00
12:33 PM,19.4,15.8,86,29.82,10.0,South,4.6,-,N/A,,Unknown,180,2013-02-23 18:33:00
12:52 PM,19.4,14.0,80,29.82,10.0,South,5.8,-,N/A,,Clear,180,2013-02-23 18:52:00
1:13 PM,19.4,14.0,80,29.81,10.0,SSE,5.8,-,N/A,,Clear,150,2013-02-23 19:13:00
1:33 PM,21.2,15.8,80,29.81,10.0,South,5.8,-,N/A,,Clear,170,2013-02-23 19:33:00
1:53 PM,21.2,14.0,74,29.81,10.0,South,5.8,-,N/A,,Clear,170,2013-02-23 19:53:00
2:13 PM,21.2,15.8,80,29.81,10.0,SSE,5.8,-,N/A,,Clear,150,2013-02-23 20:13:00
2:33 PM,21.2,15.8,80,29.80,10.0,SSE,4.6,-,N/A,,Clear,160,2013-02-23 20:33:00
2:53 PM,23.0,15.8,74,29.80,10.0,SE,5.8,-,N/A,,Clear,130,2013-02-23 20:53:00
3:13 PM,23.0,15.8,74,29.80,10.0,ESE,5.8,-,N/A,,Clear,120,2013-02-23 21:13:00
3:33 PM,23.0,15.8,74,29.80,10.0,ESE,5.8,-,N/A,,Clear,110,2013-02-23 21:33:00
3:53 PM,23.0,15.8,74,29.79,10.0,ESE,5.8,-,N/A,,Clear,120,2013-02-23 21:53:00
4:13 PM,23.0,15.8,74,29.79,10.0,ESE,6.9,-,N/A,,Clear,110,2013-02-23 22:13:00
4:33 PM,23.0,17.6,80,29.79,10.0,ESE,5.8,-,N/A,,Clear,120,2013-02-23 22:33:00
4:53 PM,23.0,17.6,80,29.79,10.0,SE,4.6,-,N/A,,Clear,130,2013-02-23 22:53:00
5:13 PM,21.2,17.6,86,29.79,10.0,ESE,3.5,-,N/A,,Clear,120,2013-02-23 23:13:00
5:33 PM,21.2,15.8,80,29.80,10.0,ESE,4.6,-,N/A,,Clear,120,2013-02-23 23:33:00
5:53 PM,19.4,15.8,86,29.80,10.0,ESE,4.6,-,N/A,,Clear,120,2013-02-23 23:53:00
6:13 PM,17.6,15.8,93,29.80,10.0,ESE,3.5,-,N/A,,Clear,110,2013-02-24 00:13:00
6:34 PM,17.6,14.0,86,29.80,10.0,ESE,5.8,-,N/A,,Clear,110,2013-02-24 00:34:00
6:53 PM,15.8,12.2,86,29.81,10.0,ESE,5.8,-,N/A,,Clear,120,2013-02-24 00:53:00
7:13 PM,15.8,12.2,86,29.81,10.0,ESE,5.8,-,N/A,,Clear,120,2013-02-24 01:13:00
7:34 PM,14.0,10.4,86,29.81,10.0,East,4.6,-,N/A,,Clear,100,2013-02-24 01:34:00
7:53 PM,15.8,12.2,86,29.82,10.0,ESE,4.6,-,N/A,,Clear,110,2013-02-24 01:53:00
8:13 PM,15.8,12.2,86,29.82,10.0,East,5.8,-,N/A,,Unknown,100,2013-02-24 02:13:00
8:34 PM,12.2,10.4,92,29.83,10.0,SE,6.9,-,N/A,,Clear,130,2013-02-24 02:34:00
8:53 PM,12.2,10.4,92,29.84,10.0,SE,8.1,-,N/A,,Clear,130,2013-02-24 02:53:00
9:13 PM,12.2,10.4,92,29.85,10.0,SE,6.9,-,N/A,,Clear,130,2013-02-24 03:13:00
9:34 PM,12.2,-9999,N/A,29.85,10.0,ESE,6.9,-,N/A,,Clear,120,2013-02-24 03:34:00
9:51 PM,10.4,8.6,92,29.85,10.0,East,4.6,-,N/A,,Unknown,100,2013-02-24 03:51:00
10:13 PM,12.2,10.4,92,29.85,10.0,Calm,Calm,-,N/A,,Unknown,0,2013-02-24 04:13:00
10:34 PM,-9999,-9999,N/A,29.85,10.0,ESE,6.9,-,N/A,,Clear,120,2013-02-24 04:34:00
10:53 PM,12.2,10.4,92,29.85,10.0,ESE,5.8,-,N/A,,Clear,120,2013-02-24 04:53:00
11:13 PM,12.2,-9999,N/A,-9999,10.0,East,3.5,-,N/A,,Clear,100,2013-02-24 05:13:00
11:34 PM,10.4,8.6,92,29.85,10.0,East,3.5,-,N/A,,Clear,100,2013-02-24 05:34:00
11:53 PM,10.4,8.6,92,29.86,10.0,Calm,Calm,-,N/A,,Clear,0,2013-02-24 05:53:00